COSMOS 2251 DEB, 35825

Orbit data source: Space-Track

COSMOS 2251 DEB, 35825 is space debris in LEO originally from a launch on Wed, 16 Jun 1993 UTC launched from the Plesetsk Missile And Space Complex (PKMTR). The debris from Iridium 33, an American commercial communications satellite, has been tracked extensively since its accidental collision with the defunct Russian satellite Cosmos 2251 in 2009. This event, occurring at high speed in low Earth orbit (LEO), generated thousands of pieces of space debris, significantly increasing the risk of further collisions. The Iridium 33 debris cloud has impacted space traffic management and orbital debris mitigation strategies, making it a subject of ongoing study in space situational awareness.

Loading next visibility...
Identifier
35825, 1993-036ASX
Orbit
LEO
Country
Flag of CISCIS
Related business
Manufacturer
Unknown
Mission
Spacecraft
Bus & Motor
Unknown
Mass
Unknown
Launch date (UTC)
1993-06-16 (33 years ago)
Launch vehicle
Unknown
Launch site
Plesetsk Missile And Space Complex (PKMTR)
Object type
Payload
Rocket body
Debris
Shape & HBR
Unknown shape, 0.1 m
Radar Cross Section
Small (<0.1 m²)

Expand to show TLE details & history
Last TLE update: 2 days ago

TLE from 2 days ago
0 COSMOS 2251 DEB
1 35825U 93036ASX 26036.37165407  .00001733  00000-0  12668-2 0  9993
2 35825  74.1123  52.7997 0349321 136.1763 226.7650 13.71232890832570
Epoch: 2026-02-05T08:55Z
TLE epoch observation values (Epoch: 2026-02-05T08:55:10.911Z)
Latitude
-0.00004°
Longitude
143.47939°
Altitude
1,178.76 km
Speed
7.175 km/s
True Right ascension
03h 31m 11s
True Declination
0° 00' 00"
Sunlit
Object was in daylight at epoch
Visualization orbit readout
Latitude
Unknown
Longitude
Unknown
Altitude
Unknown
Speed
Unknown
Apparent Right ascension
Unknown
Apparent Declination
Unknown
Sunlit
N/A
Visualization observer readout
Local Sidereal Time
00:48:31
Azimuth
Unknown
Elevation
Unknown
Doppler factor
Unknown
Orbital elements
Apogee altitude
1,250.317 km
Perigee altitude
735.35 km
Semi-major axis
7,370.971 km
Eccentricity
0.03493
Inclination
74.1123°
RAAN
52.7997°
Arg. of periapsis
136.1763°
True anomaly
223.9346°
Mean anomaly
226.765°
Eccentric anomaly
225.34135°
Mean motion
3.4297 °/min
Orbital period
104.97 mins
BSTAR
0.0012668
Loading maneuver chart data...
Computing Atmospheric mass density...

Documentation

Showing up to 5 results
|